Regional Weather Roundup
Issued by NWS

Home | Current Version | Previous Version | Graphics & Text | Print | Product List | Glossary On
Versions: 1 2 3 4 5 6 7 8 9 10 11 12 13 14 15 16 17 18 19 20 21 22 23 24 25 26 27
000
ASUS45 KBOU 270007
RWRCO

WEATHER ROUNDUP FOR COLORADO
NATIONAL WEATHER SERVICE DENVER/BOULDER CO
600 PM MDT WED APR 26 2017

NOTE: "FAIR" INDICATES FEW OR NO CLOUDS BELOW 12000 FEET WITH NO
SIGNIFICANT WEATHER AND/OR OBSTRUCTIONS TO VISIBILITY.

COZ001>005-013-030-031-270100-
...NORTHWEST COLORADO...

CITY           SKY/WX    TMP DP  RH WIND       PRES   REMARKS
CRAIG          PTSUNNY   51  28  41 W15       29.73F
HAYDEN         FAIR      45  28  53 N3        29.75S
MEEKER         LGT RAIN  48  32  53 S6        29.76F
MOUNT WERNER   NOT AVBL
STEAMBOAT SPGS CLOUDY    38  33  81 NW7       29.77R
WALDEN           N/A     37  25  60 W17       29.78R
$$

COZ006>008-011-270100-
...WEST CENTRAL VALLEYS...

CITY           SKY/WX    TMP DP  RH WIND       PRES   REMARKS
GRAND JUNCTION CLOUDY    61  21  21 W14       29.73F
MONTROSE       FAIR      57  22  25 VRB6      29.76F
EAGLE          PTSUNNY   46  30  53 SW15      29.80F
RIFLE          FAIR      50  34  54 E12       29.76F
DELTA          PTSUNNY   62  22  20 CALM      29.74F
NUCLA          NOT AVBL
$$

COZ017>023-064>068-270100-
...SOUTHWEST COLORADO...

CITY           SKY/WX    TMP DP  RH WIND       PRES   REMARKS
DURANGO        FAIR      54  16  22 W20G26    29.80F
CORTEZ         FAIR      58  13  17 W9        29.79F
PAGOSA SPRINGS FAIR      51  18  27 W20G28    29.82R
TELLURIDE      CLOUDY    42  19  39 SW12      29.88F
WOLF CREEK PAS CLOUDY    28  18  64 S20G28    29.95S WCI  15
$$

COZ009-010-012-014-032>034-037-058>063-270100-
...CENTRAL COLORADO...

CITY           SKY/WX    TMP DP  RH WIND       PRES   REMARKS
ASPEN          LGT RAIN  41  31  67 N6        29.80F
BUENA VISTA    FAIR      48  13  24 W16G25    29.76F
COPPER MTN     SNOW      27  21  80 MISG      29.86S VSB 1/4
BERTHOUD PASS  CLOUDY    18   7  62 NW29G38   29.81F WCI  -2
COTTONWOOD PAS FAIR      43  14  31 W6        29.80S
GUNNISON       FAIR      46  25  43 W16G24    29.82F
KREMMLING      CLOUDY    45  36  70 SW9       29.79F
LEADVILLE      FAIR      35  20  54 W15G21    29.82S WCI  25
MONARCH PASS   CLOUDY    23  21  93 W35G48    29.97S WCI   4
SALIDA         FAIR      46  26  46 W24G36    29.85S
SUNLIGHT       FAIR      30  27  86 SW8       29.89F WCI  23
WILKERSON PASS PTSUNNY   32  16  51 W7        29.86F WCI  26
$$

COZ069>075-270100-
...SAN LUIS VALLEY/SANGRE DE CRISTO MOUNTAINS...

CITY           SKY/WX    TMP DP  RH WIND       PRES   REMARKS
ALAMOSA        CLOUDY    48  26  42 NE13G20   29.77R
LA VETA PASS   CLOUDY    34  27  75 SW9G17    29.95S WCI  26
SAGUACHE       FAIR      50  19  29 NW23G33   29.78S
$$

COZ035-036-038>040-270100-
...NORTHERN COLORADO FRONT RANGE...

CITY           SKY/WX    TMP DP  RH WIND       PRES   REMARKS
DENVER INTL AP PTSUNNY   57  22  25 N8        29.66S
DMNS CITY PARK   N/A     55  22  27 NW15G26   29.67R
AURORA         PTSUNNY   54  23  30 SE5       29.68S
FRONT RANGE AP PTSUNNY   57  19  23 CALM      29.68F
ERIE MUNI ARPT CLOUDY    54  26  33 W23G30    29.68R
BOULDER MUN AP PTSUNNY   54  32  43 W18G25    29.69R
CENTENNIAL     CLOUDY    53  22  29 SE5       29.68F
BROOMFIELD     PTSUNNY   55  28  35 NW23      29.68S
FORT COLLINS   FAIR      59  27  29 E8        29.67S
LONGMONT       CLOUDY    61  29  29 W9G17     29.70R HAZE
$$

COZ041-046-047-076>085-087-088-270100-
...PIKES PEAK/PALMER DIVIDE AND SOUTHERN FOOTHILLS...

CITY           SKY/WX    TMP DP  RH WIND       PRES   REMARKS
COLO. SPRINGS  PTSUNNY   53  28  38 S10       29.72F
A. F. ACADEMY  MOSUNNY   47  26  43 S5        29.73S
SCHRIEVER AFB  FAIR      51  29  44 S10G16    29.73S
ELLICOTT       FAIR     N/A N/A N/A VRB3      29.72S
FALCON         FAIR      50  25  38 S3        29.75S
FORT CARSON    CLOUDY    52  30  43 W14       29.72S
LIMON          FAIR      52  31  44 SW18      29.70F
MONUMENT HILL  FAIR      45  28  53 SE9G16    29.75S
TRINIDAD       FAIR      54  35  48 SE6       29.71F
$$

COZ042>045-048>051-090-091-270100-
...NORTHEAST COLORADO...

CITY           SKY/WX    TMP DP  RH WIND       PRES   REMARKS
GREELEY ARPT   FAIR      55  28  35 NE6       29.68S
AKRON          FAIR      52  30  43 NW10      29.68F
BURLINGTON     NOT AVBL
WRAY           NOT AVBL
STERLING       PTSUNNY   54  34  47 W6        29.68R
HOLYOKE        FAIR      59  32  36 E7        29.68S
FORT MORGAN    FAIR      54  32  43 NW21G26   29.70R
$$

COZ086-089-092>099-270100-
...SOUTHEAST COLORADO...

CITY           SKY/WX    TMP DP  RH WIND       PRES   REMARKS
PUEBLO         FAIR      58  32  37 SE8       29.69R
LA JUNTA       FAIR      60  32  34 SE8       29.70F
LAMAR          FAIR      62  29  28 E8        29.68S
SPRINGFIELD      N/A     55  29  36 E6        29.71S
$$




USA.gov is the U.S. government's official web portal to all federal, state and local government web resources and services.